McAllen, TX

9:45 AM CDT on October 01, 2016 (GMT -0500)
McAllen Miller International

Weather History for KMFE - February, 2014

Change the Weather History Date:

Wednesday, February 19, 2014

  Actual Average Record
Temperature  
Mean Temperature 76 °F 65 °F  
Max Temperature 85 °F 76 °F 98 °F (1986)
Min Temperature 67 °F 55 °F 34 °F (1879)
Degree Days  
Heating Degree Days 0 3  
Month to date heating degree days 157 82  
Since 1 July heating degree days 758 509  
Cooling Degree Days 11 4  
Month to date cooling degree days 57 58  
Year to date cooling degree days 73 120  
Growing Degree Days 25 (Base 50)    
Moisture  
Dew Point 65 °F    
Average Humidity 71    
Maximum Humidity 93    
Minimum Humidity 48    
Precipitation  
Precipitation 0.00 in 0.03 in 0.91 in (1982)
Month to date precipitation 0.04 0.81  
Year to date precipitation 0.70 1.86  
Sea Level Pressure  
Sea Level Pressure 29.86 in    
Wind  
Wind Speed 17 mph (SSE)    
Max Wind Speed 28 mph    
Max Gust Speed 36 mph    
Visibility 10 miles    
Events      
T = Trace of Precipitation, MM = Missing Value Source: NWS Daily Summary

Daily Weather History Graph

Daily Weather History Graph

Search for Another Location

Airport or City:

Trip Planner

Search our weather history database for the weather conditions in past years. The results will help you decide how hot, cold, wet, or windy it might be!

Date:

Astronomy

Feb. 19, 2014 Rise Set
Actual Time 7:05 AM CST 6:28 PM CST
Civil Twilight 6:41 AM CST 6:52 PM CST
Nautical Twilight 6:14 AM CST 7:19 PM CST
Astronomical Twilight 5:48 AM CST 7:45 PM CST
Moon 10:50 PM CST (2/19) 9:41 AM CST (2/19)
Length of Visible Light 12h 10m
Length of Day
11h 23m
Waning Gibbous, 79% of the Moon is Illuminated
Feb 19
Waning Gibbous
Feb 22
Last Quarter
Mar 1
New
Mar 8
First Quarter
Mar 16
Full

Hourly Weather History & Observations

Time (CST) Temp. Heat Index Dew Point Humidity Pressure Visibility Wind Dir Wind Speed Gust Speed Precip Events Conditions
12:53 AM 66.9 °F - 64.9 °F 93% 29.93 in 10.0 mi SSE 15.0 mph - N/A   Mostly Cloudy
1:26 AM 68.0 °F - 64.4 °F 88% 29.93 in 10.0 mi SSE 17.3 mph 23.0 mph N/A   Mostly Cloudy
1:53 AM 68.0 °F - 64.9 °F 90% 29.92 in 10.0 mi SSE 15.0 mph - N/A   Overcast
2:53 AM 68.0 °F - 64.9 °F 90% 29.90 in 10.0 mi SSE 12.7 mph - N/A   Overcast
3:19 AM 69.8 °F - 64.4 °F 83% 29.90 in 10.0 mi SSE 12.7 mph - N/A   Overcast
3:53 AM 69.1 °F - 64.9 °F 87% 29.89 in 10.0 mi SSE 16.1 mph 23.0 mph N/A   Overcast
4:53 AM 69.1 °F - 64.9 °F 87% 29.89 in 10.0 mi SSE 11.5 mph - N/A   Overcast
5:53 AM 69.1 °F - 64.9 °F 87% 29.89 in 10.0 mi SSE 12.7 mph - N/A   Overcast
6:53 AM 69.1 °F - 64.9 °F 87% 29.90 in 10.0 mi SSE 11.5 mph - N/A   Overcast
7:53 AM 70.0 °F - 64.9 °F 84% 29.92 in 10.0 mi SSE 12.7 mph 21.9 mph N/A   Overcast
8:35 AM 69.8 °F - 66.2 °F 88% 29.93 in 10.0 mi SSE 16.1 mph - N/A   Overcast
8:42 AM 69.8 °F - 64.4 °F 83% 29.93 in 10.0 mi SSE 17.3 mph - N/A   Overcast
8:53 AM 70.0 °F - 64.9 °F 84% 29.92 in 10.0 mi SSE 16.1 mph 25.3 mph N/A   Overcast
9:06 AM 71.6 °F - 66.2 °F 83% 29.93 in 10.0 mi SSE 15.0 mph 21.9 mph N/A   Overcast
9:26 AM 71.6 °F - 64.4 °F 78% 29.93 in 10.0 mi SSE 16.1 mph 23.0 mph N/A   Overcast
9:53 AM 72.0 °F - 64.9 °F 78% 29.93 in 10.0 mi SSE 21.9 mph 27.6 mph N/A   Overcast
10:53 AM 77.0 °F - 64.9 °F 66% 29.91 in 10.0 mi SSE 23.0 mph 28.8 mph N/A   Mostly Cloudy
11:13 AM 78.8 °F - 64.4 °F 61% 29.91 in 10.0 mi South 19.6 mph 29.9 mph N/A   Partly Cloudy
11:53 AM 79.0 °F - 64.9 °F 62% 29.88 in 10.0 mi SSE 20.7 mph 31.1 mph N/A   Mostly Cloudy
12:53 PM 81.0 °F 82.5 °F 64.0 °F 56% 29.85 in 10.0 mi SSE 20.7 mph 31.1 mph N/A   Partly Cloudy
1:53 PM 84.0 °F 85.8 °F 64.9 °F 53% 29.80 in 10.0 mi SSE 18.4 mph 29.9 mph N/A   Clear
2:53 PM 84.0 °F 84.9 °F 63.0 °F 49% 29.77 in 10.0 mi SSE 20.7 mph 27.6 mph N/A   Clear
3:53 PM 82.9 °F 84.4 °F 64.0 °F 53% 29.75 in 10.0 mi SSE 19.6 mph 32.2 mph N/A   Clear
4:53 PM 80.1 °F 81.2 °F 62.1 °F 54% 29.74 in 10.0 mi SE 23.0 mph 31.1 mph N/A   Clear
5:53 PM 77.0 °F - 61.0 °F 58% 29.75 in 10.0 mi SE 19.6 mph 32.2 mph N/A   Clear
6:53 PM 73.0 °F - 61.0 °F 66% 29.77 in 10.0 mi SSE 19.6 mph 29.9 mph N/A   Clear
7:53 PM 71.1 °F - 63.0 °F 75% 29.78 in 10.0 mi SE 15.0 mph 26.5 mph N/A   Clear
8:53 PM 70.0 °F - 64.0 °F 81% 29.78 in 10.0 mi SSE 17.3 mph 23.0 mph N/A   Clear
9:53 PM 69.1 °F - 64.0 °F 84% 29.79 in 10.0 mi SSE 13.8 mph 21.9 mph N/A   Clear
10:37 PM 69.8 °F - 66.2 °F 88% 29.79 in 10.0 mi SSE 16.1 mph 25.3 mph N/A   Mostly Cloudy
10:53 PM 71.1 °F - 66.0 °F 84% 29.78 in 10.0 mi SSE 19.6 mph 27.6 mph N/A   Overcast
11:15 PM 71.6 °F - 66.2 °F 83% 29.79 in 10.0 mi SSE 17.3 mph 32.2 mph N/A   Overcast
11:53 PM 71.1 °F - 66.0 °F 84% 29.78 in 10.0 mi SSE 20.7 mph 27.6 mph N/A   Overcast